EW3244 Weather Reports


Display with metric or nautical units.
time (UTC)temp
F
wind
direction
speed
MPH
gust
MPH
rain 1hr
in
rain 24hr
in
rain mn
in
humidity
%
barometer
mb
20260503210048 46 272 0.0 1.0 0.00 0.00 0.00 82 1006.7
20260503204646 47 279 0.0 1.0 0.00 0.00 0.00 82 1006.9
20260503203054 47 284 0.0 3.0 0.00 0.00 0.00 81 1007.0
20260503201543 48 221 1.0 3.0 0.00 0.00 0.00 81 1007.1
20260503200040 48 275 0.0 1.0 0.00 0.00 0.00 80 1007.2
20260503194540 49 239 0.0 2.0 0.00 0.00 0.00 80 1007.1
20260503193038 50 238 0.0 2.0 0.00 0.00 0.00 79 1007.1
20260503191536 50 238 0.0 1.0 0.00 0.00 0.00 78 1007.2
20260503190031 50 238 0.0 1.0 0.00 0.00 0.00 78 1007.1
20260503184530 51 238 0.0 3.0 0.00 0.00 0.00 77 1007.1
20260503183028 51 242 1.0 4.0 0.00 0.00 0.00 76 1007.0
20260503181526 52 234 2.0 3.0 0.00 0.00 0.00 76 1007.0
20260503180026 52 238 0.0 3.0 0.00 0.00 0.00 76 1007.0
20260503174525 52 231 1.0 4.0 0.00 0.00 0.00 76 1007.0
20260503173028 53 218 1.0 5.0 0.00 0.00 0.00 75 1007.0
20260503171623 53 237 0.0 3.0 0.00 0.00 0.00 75 1006.9
20260503090105 61 129 2.0 6.0 0.00 0.00 0.00 70 1007.0
20260503081553 59 65 1.0 3.0 0.00 0.00 0.00 71 1007.2
20260503071606 56 69 1.0 3.0 0.00 0.00 0.00 72 1007.2
20260503060103 56 49 0.0 1.0 0.00 0.00 0.00 68 1007.0
20260503054556 55 49 0.0 1.0 0.00 0.00 0.00 68 1007.0
20260503053046 55 49 0.0 0.0 0.00 0.00 0.00 69 1007.0
20260503051544 55 49 0.0 1.0 0.00 0.00 0.00 70 1007.0
20260503050044 54 49 0.0 1.0 0.00 0.00 0.00 72 1007.1
20260503044543 53 49 0.0 1.0 0.00 0.00 0.00 76 1007.2
20260503043044 53 49 0.0 1.0 0.00 0.00 0.00 75 1007.1
20260503041543 53 49 0.0 0.0 0.00 0.00 0.00 76 1007.0
20260503040051 52 48 0.0 0.0 0.00 0.00 0.00 74 1006.8
20260503034541 52 49 0.0 0.0 0.00 0.00 0.00 75 1006.9
20260503033041 52 49 0.0 0.0 0.00 0.00 0.00 75 1006.8
20260503031545 52 49 0.0 0.0 0.00 0.00 0.00 75 1006.8
20260503030046 52 49 0.0 0.0 0.00 0.00 0.00 75 1006.7
20260503024535 53 49 0.0 0.0 0.00 0.00 0.00 75 1006.7
20260503023034 53 49 0.0 0.0 0.00 0.00 0.00 75 1006.8
20260503021531 53 49 0.0 0.0 0.00 0.00 0.00 74 1006.8
20260503020029 54 49 0.0 0.0 0.00 0.00 0.00 73 1006.7
20260503014525 54 49 0.0 0.0 0.00 0.00 0.00 71 1006.7
20260503013025 55 49 0.0 0.0 0.00 0.00 0.00 71 1006.7
20260503011521 55 49 0.0 0.0 0.00 0.00 0.00 70 1006.9
20260503010022 56 49 0.0 0.0 0.00 0.00 0.00 69 1006.9
20260503004516 57 49 0.0 1.0 0.00 0.00 0.00 68 1006.9
20260503003012 58 49 0.0 2.0 0.00 0.00 0.00 64 1007.1
20260503001512 59 43 1.0 4.0 0.00 0.00 0.00 65 1007.2
20260503000008 59 55 3.0 6.0 0.00 0.00 0.00 62 1007.3
20260502234506 59 59 2.0 5.0 0.00 0.00 0.00 55 1007.4
20260502233004 59 48 3.0 6.0 0.00 0.00 0.00 52 1007.5
20260502231503 59 70 1.0 8.0 0.00 0.00 0.00 51 1007.2
20260502230005 59 57 4.0 7.0 0.00 0.00 0.00 50 1007.4
20260502224501 59 43 3.0 7.0 0.00 0.00 0.00 51 1007.4
20260502223100 59 41 3.0 7.0 0.00 0.00 0.00 51 1007.4
20260502221557 59 46 2.0 6.0 0.00 0.00 0.00 49 1007.4
20260502220054 60 26 1.0 4.0 0.00 0.00 0.00 48 1007.3
20260502214552 60 35 2.0 6.0 0.00 0.00 0.00 48 1007.5
20260502213051 59 34 1.0 5.0 0.00 0.00 0.00 48 1007.6
20260502211550 59 17 1.0 4.0 0.00 0.00 0.00 48 1007.7